sat.trackr.live / text

‹ back to catalog

ONEWEB-0590

NORAD 54656 · 2022-166Q

PAYLOAD ACTIVE UNKNOWN

§ Identity

Operator
Country
UK
Launch date
2022-12-08
Launch site
AFETR
Launch vehicle
Mass (kg)
RCS (m²)

Purposes: comms

External: N2YO · Heavens-Above · Gunter

§ Orbital elements

Epoch: 2026-05-24T23:35:42.087264Z

Period
108.94 min
Inclination
87.9260°
Eccentricity
0.0002223
Mean motion
13.21825356 rev/d
Perigee alt
1,176.1 km
Apogee alt
1,179.4 km
Semi-major
7,555.9 km
B*
-9.7922e-5
RAAN
248.5867°
Arg perigee
111.6532°
Mean anomaly
248.4839°
Rev number
16,846

§ Raw data

ONEWEB-05901 54656U 22166Q   26144.98312601 -.00000027  00000+0 -97922-4 0  99932 54656  87.9260 248.5867 0002223 111.6532 248.4839 13.21825356168467

JSON: /api/v1/satellites/54656 · /tle

For live sub-satellite position, see the globe view (requires WebGL).

§ Visibility from observer

Set your observer location to see the next 7 days of passes ≥ 10°. The values pass through the URL so the page stays shareable.

No JS? Fill the form by hand. The geolocation button needs JavaScript.